Location: الشقيري
(17.1356°N, 42.8272°E)
Time: 20:43:36
(UTC+00:00)

N. Korean satellite - Pass Details

Date: 26 November 2019
Orbit: 456 x 506 km, 97.2° (Epoch: 07 December)

Event Time Altitude Azimuth Distance (km) Brightness Sun altitude
Rises 15:11:32 0° 199° (SSW) 2,549 10.8 -9.6°
Reaches altitude 10° 15:14:06 10° 219° (SW) 1,680 10.3 -10.1°
Maximum altitude 15:16:34 18° 262° (W) 1,289 9.9 -10.7°
Drops below altitude 10° 15:19:05 10° 306° (NW) 1,699 9.8 -11.3°
Sets 15:21:42 0° 326° (NW) 2,590 10.5 -11.9°
